EA7RX-4 Weather Reports


time (UTC)temp
F
wind
direction
speed
knots
gust
knots
rain 1hr
in
rain 24hr
in
rain mn
in
humidity
%
barometer
mb
20260507100003 58 154 8.7 14.8 0.00 0.00 0.00 62 1009.8
20260507095003 59 132 8.7 13.0 0.00 0.00 0.00 62 1010.1
20260507094003 59 126 7.8 13.9 0.00 0.00 0.00 62 1010.0
20260507093003 58 113 8.7 16.5 0.00 0.00 0.00 66 1009.8
20260507092003 57 140 7.0 13.9 0.00 0.00 0.00 65 1009.8
20260507091003 56 140 7.0 13.9 0.00 0.00 0.00 71 1009.7
20260507090004 57 118 6.1 13.9 0.00 0.00 0.00 67 1009.8
20260507085003 56 131 4.3 9.6 0.00 0.00 0.00 67 1010.0
20260507084003 56 147 5.2 11.3 0.00 0.00 0.00 67 1009.6
20260507083003 55 139 6.1 9.6 0.00 0.00 0.00 68 1010.0
20260507082003 55 144 5.2 12.2 0.00 0.00 0.00 68 1009.7
20260507081003 55 153 5.2 9.6 0.00 0.00 0.00 68 1009.8
20260507080003 55 122 5.2 11.3 0.00 0.00 0.00 68 1009.6
20260507075003 55 137 2.6 7.0 0.00 0.00 0.00 69 1009.7
20260507074003 53 112 2.6 6.1 0.00 0.00 0.00 72 1009.7
20260507073003 54 114 1.7 5.2 0.00 0.00 0.00 70 1009.8
20260507072003 53 86 0.9 5.2 0.00 0.00 0.00 69 1009.5
20260507071003 52 74 0.9 5.2 0.00 0.00 0.00 73 1009.8
20260507070005 51 46 1.7 5.2 0.00 0.00 0.00 75 1009.5
20260507065003 51 53 1.7 5.2 0.00 0.00 0.00 75 1009.4
20260507064003 51 48 1.7 5.2 0.00 0.00 0.00 77 1009.2
20260507063003 50 32 2.6 5.2 0.00 0.00 0.00 78 1009.4
20260507062003 50 31 1.7 3.5 0.00 0.00 0.00 77 1009.2
20260507061003 49 41 1.7 5.2 0.00 0.00 0.00 78 1009.2
20260507060003 49 37 2.6 5.2 0.00 0.00 0.00 79 1009.0
20260507055003 49 23 2.6 5.2 0.00 0.00 0.00 78 1008.9
20260507054003 49 39 3.5 6.1 0.00 0.00 0.00 79 1009.0
20260507053003 49 35 2.6 6.1 0.00 0.00 0.00 80 1008.9
20260507052003 49 38 3.5 7.0 0.00 0.00 0.00 80 1008.8
20260507051003 49 37 4.3 7.0 0.00 0.00 0.00 80 1008.8
20260507050003 49 38 3.5 6.1 0.00 0.00 0.00 80 1008.6
20260507045003 49 43 2.6 5.2 0.00 0.00 0.00 79 1008.8
20260507044003 50 55 1.7 6.1 0.00 0.00 0.00 79 1008.8
20260507043003 50 69 1.7 6.1 0.00 0.00 0.00 78 1008.5
20260507042003 50 56 3.5 6.1 0.00 0.00 0.00 78 1009.0
20260507041003 50 45 2.6 6.1 0.00 0.00 0.00 79 1008.9
20260507040003 50 52 1.7 5.2 0.00 0.00 0.00 79 1008.9
20260507035003 50 72 1.7 5.2 0.00 0.00 0.00 79 1008.9
20260507034003 50 94 3.5 7.0 0.00 0.00 0.00 79 1008.8
20260507033003 50 94 5.2 11.3 0.00 0.00 0.00 80 1008.5
20260507032003 50 90 7.0 12.2 0.00 0.00 0.00 79 1008.3
20260507031003 50 90 7.0 12.2 0.00 0.00 0.00 80 1008.3
20260507030003 49 100 7.8 13.0 0.00 0.00 0.00 80 1008.4
20260507025003 50 102 8.7 14.8 0.00 0.00 0.00 79 1008.5
20260507024003 50 112 9.6 14.8 0.00 0.00 0.00 79 1008.4
20260507023003 50 105 8.7 14.8 0.00 0.00 0.00 79 1008.3
20260507022003 49 102 8.7 13.0 0.00 0.00 0.00 79 1008.5
20260507021003 50 110 8.7 15.6 0.00 0.00 0.00 79 1008.5
20260507020003 50 92 9.6 13.9 0.00 0.00 0.00 78 1008.5
20260507015003 50 106 7.8 13.0 0.00 0.00 0.00 77 1008.4
20260507014003 50 105 9.6 13.9 0.00 0.00 0.00 75 1008.6
20260507013003 49 99 8.7 13.9 0.00 0.00 0.00 73 1008.6
20260507012003 49 110 7.8 13.9 0.00 0.00 0.00 71 1008.8
20260507011003 49 112 7.8 12.2 0.00 0.00 0.00 69 1008.8
20260507010003 49 109 7.8 12.2 0.00 0.00 0.00 68 1009.0
20260507005003 49 120 7.8 13.9 0.00 0.00 0.00 67 1009.0
20260507004003 50 110 7.8 13.0 0.00 0.00 0.00 65 1009.1
20260507003003 50 111 7.8 13.0 0.00 0.00 0.00 63 1009.2
20260507002003 51 111 7.8 12.2 0.00 0.00 0.00 62 1009.0
20260507001003 51 111 7.8 14.8 0.00 0.00 0.00 61 1009.0
20260507000003 52 103 8.7 13.9 0.00 0.00 0.00 59 1009.0
20260506235003 52 99 8.7 15.6 0.00 0.00 0.00 58 1008.9
20260506234003 52 98 7.0 13.9 0.00 0.00 0.00 58 1009.0
20260506233003 53 83 5.2 11.3 0.00 0.00 0.00 56 1009.0
20260506232003 53 87 4.3 8.7 0.00 0.00 0.00 53 1008.8
20260506231003 54 71 4.3 8.7 0.00 0.00 0.00 51 1008.9
20260506230003 54 80 4.3 7.8 0.00 0.00 0.00 49 1009.0
20260506225003 54 78 3.5 7.8 0.00 0.00 0.00 47 1009.1
20260506224003 54 76 4.3 8.7 0.00 0.00 0.00 46 1008.9
20260506223003 55 82 3.5 8.7 0.00 0.00 0.00 44 1009.0
20260506222003 56 73 2.6 5.2 0.00 0.00 0.00 43 1009.0
20260506221003 56 64 1.7 6.1 0.00 0.00 0.00 41 1009.0
20260506220003 56 80 2.6 3.5 0.00 0.00 0.00 42 1009.0
20260506215003 58 60 1.7 3.5 0.00 0.00 0.00 38 1009.2
20260506214003 58 55 2.6 5.2 0.00 0.00 0.00 38 1009.1
20260506213003 58 55 2.6 5.2 0.00 0.00 0.00 38 1009.1
20260506212003 58 68 1.7 3.5 0.00 0.00 0.00 39 1009.0
20260506211003 58 65 1.7 3.5 0.00 0.00 0.00 38 1009.1
20260506210003 58 61 1.7 3.5 0.00 0.00 0.00 38 1009.1
20260506205003 58 75 1.7 2.6 0.00 0.00 0.00 38 1009.2
20260506204003 58 76 0.9 2.6 0.00 0.00 0.00 38 1009.1
20260506203003 58 92 0.9 0.9 0.00 0.00 0.00 38 1008.9
20260506202003 59 151 0.0 0.9 0.00 0.00 0.00 39 1008.9
20260506201003 59 0 0.0 0.0 0.00 0.00 0.00 38 1009.0
20260506200003 60 180 0.0 0.9 0.00 0.00 0.00 36 1008.8
20260506195003 60 180 0.9 0.9 0.00 0.00 0.00 35 1008.9
20260506194003 60 174 0.0 0.9 0.00 0.00 0.00 35 1008.6
20260506193003 60 187 0.0 0.9 0.00 0.00 0.00 36 1008.6
20260506192003 61 216 0.9 1.7 0.00 0.00 0.00 35 1008.4
20260506191003 61 298 0.9 1.7 0.00 0.00 0.00 34 1008.6
20260506190003 63 273 0.9 1.7 0.00 0.00 0.00 33 1008.5
20260506185003 63 122 0.9 1.7 0.00 0.00 0.00 32 1008.6
20260506184003 63 358 1.7 5.2 0.00 0.00 0.00 32 1008.5
20260506183003 64 258 1.7 3.5 0.00 0.00 0.00 32 1008.4
20260506182003 64 99 0.9 2.6 0.00 0.00 0.00 32 1008.3
20260506181003 64 262 1.7 5.2 0.00 0.00 0.00 32 1008.3
20260506180003 63 261 3.5 6.1 0.00 0.00 0.00 32 1008.5
20260506175003 64 227 2.6 7.8 0.00 0.00 0.00 32 1008.5
20260506174003 64 219 2.6 5.2 0.00 0.00 0.00 32 1008.5
20260506173003 64 206 2.6 5.2 0.00 0.00 0.00 32 1008.6
20260506172003 65 257 1.7 5.2 0.00 0.00 0.00 32 1008.4
20260506171003 64 254 3.5 7.8 0.00 0.00 0.00 31 1008.6
20260506170003 64 264 2.6 6.1 0.00 0.00 0.00 32 1008.8
20260506165003 64 346 3.5 6.1 0.00 0.00 0.00 31 1008.8
20260506164003 64 287 4.3 7.0 0.00 0.00 0.00 32 1008.8
20260506163003 64 293 4.3 8.7 0.00 0.00 0.00 32 1008.6
20260506162003 64 316 4.3 8.7 0.00 0.00 0.00 32 1008.5
20260506161003 64 293 2.6 7.0 0.00 0.00 0.00 32 1008.9
20260506160003 64 29 2.6 8.7 0.00 0.00 0.00 32 1008.9
20260506155003 63 351 3.5 7.0 0.00 0.00 0.00 33 1008.6
20260506154003 63 55 2.6 6.1 0.00 0.00 0.00 33 1009.2
20260506153003 63 333 2.6 9.6 0.00 0.00 0.00 34 1009.1
20260506152003 63 18 3.5 9.6 0.00 0.00 0.00 34 1009.2
20260506151003 62 303 2.6 7.8 0.00 0.00 0.00 35 1009.2
20260506150003 61 316 3.5 7.8 0.00 0.00 0.00 35 1009.4
20260506145003 64 289 2.6 7.0 0.00 0.00 0.00 34 1009.4
20260506144003 63 336 4.3 7.8 0.00 0.00 0.00 35 1009.6
20260506143003 63 292 3.5 8.7 0.00 0.00 0.00 35 1009.5
20260506142003 64 237 2.6 7.0 0.00 0.00 0.00 34 1010.0
20260506141003 62 345 2.6 5.2 0.00 0.00 0.00 35 1009.8
20260506140003 63 185 1.7 7.8 0.00 0.00 0.00 36 1010.0
20260506135003 61 217 5.2 8.7 0.00 0.00 0.00 38 1010.2
20260506134003 60 316 2.6 7.0 0.00 0.00 0.00 39 1010.2
20260506133003 61 129 1.7 5.2 0.00 0.00 0.00 39 1010.3
20260506132003 59 75 3.5 8.7 0.00 0.00 0.00 41 1010.3
20260506131003 60 72 3.5 7.0 0.00 0.00 0.00 40 1010.5
20260506130003 59 66 3.5 9.6 0.00 0.00 0.00 43 1010.4
20260506125003 60 210 1.7 5.2 0.00 0.00 0.00 41 1010.4
20260506124003 59 94 1.7 5.2 0.00 0.00 0.00 41 1010.6
20260506123003 60 80 2.6 6.1 0.00 0.00 0.00 40 1010.6
20260506122003 59 232 2.6 7.8 0.00 0.00 0.00 42 1010.8
20260506121003 58 276 2.6 6.1 0.00 0.00 0.00 44 1010.9
20260506120003 58 46 0.9 6.1 0.00 0.00 0.00 44 1011.2
20260506115003 59 273 1.7 5.2 0.00 0.00 0.00 43 1011.2
20260506114003 58 6 2.6 12.2 0.00 0.00 0.00 44 1010.8
20260506113003 56 261 4.3 8.7 0.00 0.00 0.00 47 1011.0
20260506112003 57 288 5.2 9.6 0.00 0.00 0.00 45 1011.2
20260506111003 56 269 2.6 6.1 0.00 0.00 0.00 47 1011.2
20260506110003 56 94 1.7 5.2 0.00 0.00 0.00 48 1011.3
20260506105003 56 38 4.3 11.3 0.00 0.00 0.00 48 1011.3
20260506104003 56 9 3.5 11.3 0.00 0.00 0.00 49 1011.3
20260506103003 55 22 3.5 7.8 0.00 0.00 0.00 51 1011.3
20260506102003 56 37 2.6 7.0 0.00 0.00 0.00 51 1011.3
20260506101003 56 61 3.5 7.8 0.00 0.00 0.00 52 1011.4